Location: ?
(35.3436°N, 139.3168°E)
Time: 20:21:49
(UTC+00:00)

ATLAS 3B R/B - Pass Details

Date: 29 October 2020
Orbit: 1014 x 1181 km, 63.8° (Epoch: 23 November)

Event Time Altitude Azimuth Distance (km) Brightness Sun altitude
Exits shadow 19:54:13 20° 284° (WNW) 2,170 3.7 -14.4°
Maximum altitude 19:56:41 24° 315° (NW) 1,954 3.7 -13.9°
Drops below altitude 10° 20:01:58 10° 8° (N) 2,830 4.9 -12.9°
Sets 20:05:11 0° 22° (NNE) 3,806 5.8 -12.2°
